[[{"header":{"parameterUnit":"m.s-1","parameterCategory":1,"la1":30.2991,"la2":30.254,"lo1":-89.0895,"lo2":-89.0444,"dy":0.0017,"dx":0.0017,"nx":28,"ny":28,"refTime":"2023-09-19T03:00:00:Z","depth":0,"parameterNumber":2,"parameterNumberName":"U-component_of_WINDS"},"data":[0,0,0,0,0,0,0,0,0,0,0,0,0,0,0,0,0,0,0,0,0,0,0,0,0,0,0,0,0,0,0,0,0,0,0,0,0,0,0,0,0,0,0,0,0,0,0,0,0,0,0,0,0,0,0,0,0,0,-3.8798,-3.8803,0,-3.9323,-3.9329,-3.9335,-3.9426,-3.9422,-3.9417,-3.9413,-3.997,-3.9989,-4.0007,0,0,0,0,0,0,0,0,0,0,0,0,0,-3.7889,-3.7905,-3.8797,-3.8804,-3.881,-3.9322,-3.933,-3.9337,-3.9427,-3.9421,-3.9416,-3.9411,-3.9964,-3.9986,-4.0009,0,0,0,0,0,0,0,0,0,0,0,0,0,-3.8336,-3.791,-3.8796,-3.8917,-3.8932,-3.9321,-3.933,-3.9339,-3.9428,-3.9421,-3.9415,-3.9408,-3.9956,-3.9984,-4.0012,-4.0323,0,0,-4.01,-4.0112,0,0,0,0,0,0,0,0,-3.8311,-3.8369,-3.8892,-3.8909,-3.8927,-3.9302,-3.9214,-3.967,-3.943,-3.9241,-3.9413,-3.9405,-3.9755,-3.9799,-3.9913,-4.035,-4.0373,-4.0102,-4.0119,-4.0132,-4.014,0,0,0,0,0,0,0,-3.8279,-3.8347,-3.9006,-3.89,-3.8922,-3.895,-3.9006,-3.9301,-3.953,-3.9257,-3.9264,-3.9324,-3.9763,-3.9886,-3.9927,-4.0382,-4.0101,-4.0127,-4.0144,-4.0155,-4.1102,-4.1109,0,0,0,0,0,0,-3.8224,-3.8321,-3.8989,-3.9022,-3.8595,-3.8972,-3.9035,-3.9189,-3.9526,-3.9571,-3.9329,-3.9326,-3.984,-3.9894,-3.9947,-4.0336,-4.0131,-4.0158,-4.0175,-4.1094,-4.1104,-4.1112,0,0,0,0,0,0,-3.8204,-3.8283,-3.8968,-3.8674,-3.8763,-3.8994,-3.9167,-3.9203,-3.9325,-3.9581,-3.9624,-3.9411,-3.9837,-3.9907,-4.0228,-4.0356,-4.0171,-4.0197,-4.1084,-4.1097,-4.1108,-4.1113,0,0,0,0,0,0,-3.8178,-3.8275,-3.8392,-3.8675,-3.8778,-3.9236,-3.9175,-3.9218,-3.9372,-3.9373,-3.967,-3.9713,-3.9837,-4.0185,-4.0257,-4.0392,-4.0219,-4.1074,-4.109,-4.1104,-4.1103,-4.1124,-4.1142,0,0,0,0,0,-3.8145,-3.8377,-3.8397,-3.8478,-3.8928,-3.9243,-3.9302,-3.9435,-3.9382,-3.9504,-3.9668,-3.9703,-4.0329,-4.0217,-4.0299,-4.0445,-4.1067,-4.1085,-4.1103,-4.1094,-4.112,-4.1141,0,0,0,0,0,0,-3.811,-3.8416,-3.8443,-3.8771,-3.8979,-3.9257,-3.9416,-3.9458,-3.9691,-3.9683,-3.9844,-3.991,-4.0224,-4.0366,-4.0236,-4.0764,-4.0695,-4.073,-4.066,-4.0687,-4.0706,-4.0668,-4.0243,0,0,0,0,0,-3.8139,-3.8363,-3.8621,-3.8886,-3.8988,-3.9183,-3.9326,-3.9409,-3.9634,-3.9725,-3.9913,-4.0134,-4.0381,-4.0541,-4.0783,-4.1122,-4.119,-4.1262,-4.1282,-4.1296,-4.1327,-4.152,-4.1556,-4.1171,-4.1171,-4.1171,0,0,-3.8205,-3.8399,-3.8532,-3.8884,-3.9055,-3.9289,-3.9258,-3.9507,-3.9684,-3.9765,-4.0079,-4.0224,-4.0483,-4.0814,-4.097,-4.0943,-4.1447,-4.1319,-4.1329,-4.1353,-4.1542,-4.1578,-4.161,-4.1184,-4.1181,-4.118,0,0,-3.8444,-3.8611,-3.8851,-3.9021,-3.9278,-3.9406,-3.9462,-3.9734,-3.9832,-4.0147,-4.0213,-4.0428,-4.0849,-4.1031,-4.1179,-4.1482,-4.1525,-4.1556,-4.1662,-4.1847,-4.1878,-4.1905,-4.2018,-4.2056,-4.1585,-4.1585,-4.1585,0,-3.8495,-3.8844,-3.8971,-3.9217,-3.9371,-3.9447,-3.9694,-3.9856,-4.0181,-4.0288,-4.025,-4.0779,-4.0959,-4.1335,-4.1408,-4.1524,-4.1599,-4.1526,-4.1861,-4.1891,-4.1919,-4.2028,-4.2069,-4.1587,-4.1587,-4.1587,-4.1587,0,-3.8896,-3.9137,-3.9301,-3.9605,-3.9778,-4.0024,-4.0193,-4.0353,-4.042,-4.0553,-4.0876,-4.1092,-4.1379,-4.1473,-4.1545,-4.1861,-4.1836,-4.1828,-4.1763,-4.1956,-4.2061,-4.2104,-4.1591,-4.159,-4.1589,-4.1589,0,0,-3.9134,-3.95,-3.9559,-3.9698,-3.9985,-4.0178,-4.0427,-4.0701,-4.0837,-4.1058,-4.1275,-4.1627,-4.1621,-4.1788,-4.188,-4.2042,-4.2273,-4.2015,-4.2024,-4.2059,-4.2639,-4.2647,-4.2693,-4.23,-4.2308,-4.2315,-4.2619,0,-3.941,-3.9852,-3.9972,-4.0349,-4.0576,-4.0649,-4.0867,-4.107,-4.12,-4.1416,-4.1562,-4.181,-4.178,-4.1882,-4.2045,-4.221,-4.2392,-4.2189,-4.2511,-4.252,-4.2448,-4.2747,-4.2757,-4.3034,-4.2661,-4.2668,-4.2673,0,-3.9793,-4.0014,-4.0411,-4.0667,-4.0767,-4.096,-4.1221,-4.1424,-4.1657,-4.174,-4.1924,-4.2,-4.2269,-4.2183,-4.2559,-4.2418,-4.2556,-4.2656,-4.2671,-4.2711,-4.2612,-4.28,-4.3125,-4.3168,-4.2738,-4.2733,-4.2728,0,-3.9931,-4.0328,-4.0617,-4.0733,-4.1039,-4.1174,-4.1308,-4.1533,-4.169,-4.1919,-4.2023,-4.2282,-4.2426,-4.2628,-4.2774,-4.2697,-4.3139,-4.3065,-4.3221,-4.3218,-4.3316,-4.3309,-4.3672,-4.3396,-4.3395,-4.3394,-4.3393,0,-4.023,-4.0471,-4.0683,-4.0861,-4.1135,-4.1272,-4.1541,-4.168,-4.1878,-4.2089,-4.2169,-4.2367,-4.2545,-4.2768,-4.2884,-4.318,-4.3243,-4.3323,-4.3352,-4.3319,-4.3309,-4.3416,-4.3402,-4.3405,-4.3403,-4.3401,-4.3399,0,-4.0433,-4.0583,-4.0904,-4.1164,-4.1235,-4.1425,-4.1652,-4.1831,-4.196,-4.2227,-4.2297,-4.2505,-4.2771,-4.2934,-4.3274,-4.3352,-4.3679,-4.3698,-4.3599,-4.3613,-4.3762,-4.3747,-4.4211,-4.4281,-4.3952,-4.3955,-4.3957,0,-4.0616,-4.0802,-4.108,-4.1223,-4.1357,-4.1588,-4.1746,-4.1889,-4.2052,-4.2328,-4.2476,-4.2745,-4.2969,-4.3391,-4.3577,-4.3837,-4.3867,-4.4011,-4.3908,-4.3868,-4.3875,-4.3864,-4.3885,-4.403,-4.4033,-4.4036,-4.4037,0,-4.0927,-4.0991,-4.1212,-4.146,-4.1644,-4.1848,-4.2052,-4.2166,-4.2344,-4.2524,-4.2793,-4.2965,-4.3308,-4.3578,-4.3853,-4.3999,-4.4052,-4.4067,-4.4118,-4.4089,-4.4025,-4.4066,-4.3651,-4.4058,-4.4056,-4.4054,-4.4053,-4.4052,-4.113,-4.1298,-4.1519,-4.1764,-4.193,-4.2117,-4.2298,-4.2447,-4.2672,-4.2958,-4.303,-4.3313,-4.3543,-4.3917,-4.4068,-4.4296,-4.4276,-4.4348,-4.4368,-4.4385,-4.439,-4.3983,-4.4346,-4.4346,-4.4346,-4.4346,-4.4345,0,-4.1448,-4.1591,-4.1814,-4.2093,-4.2286,-4.2307,-4.2534,-4.2696,-4.2942,-4.3148,-4.3364,-4.3675,-4.3935,-4.4138,-4.4406,-4.455,-4.4581,-4.4617,-4.4611,-4.4644,-4.4391,-4.4322,-4.4587,-4.4587,-4.4587,-4.4587,-4.4587,-4.4587,-4.1636,-4.1924,-4.2013,-4.2386,-4.253,-4.2803,-4.2931,-4.3106,-4.3271,-4.3612,-4.3826,-4.3953,-4.416,-4.4444,-4.4685,-4.4738,-4.4836,-4.4868,-4.4927,-4.4688,-4.4662,-4.4637,-4.4573,-4.4887,-4.4887,-4.5162,-4.5165,-4.5167]},{"header":{"parameterUnit":"m.s-1","parameterCategory":1,"la1":30.2991,"la2":30.254,"lo1":-89.0895,"lo2":-89.0444,"dy":0.0017,"dx":0.0017,"nx":28,"ny":28,"refTime":"2023-09-19T03:00:00:Z","depth":0,"parameterNumber":3,"parameterNumberName":"V-component_of_WINDS"},"data":[0,0,0,0,0,0,0,0,0,0,0,0,0,0,0,0,0,0,0,0,0,0,0,0,0,0,0,0,0,0,0,0,0,0,0,0,0,0,0,0,0,0,0,0,0,0,0,0,0,0,0,0,0,0,0,0,0,0,-1.6407,-1.6405,0,-1.6226,-1.6224,-1.6222,-1.6111,-1.611,-1.611,-1.6109,-1.592,-1.5915,-1.5911,0,0,0,0,0,0,0,0,0,0,0,0,0,-1.6655,-1.6651,-1.6407,-1.6405,-1.6403,-1.6227,-1.6224,-1.6221,-1.6111,-1.611,-1.611,-1.6109,-1.5921,-1.5916,-1.591,0,0,0,0,0,0,0,0,0,0,0,0,0,-1.6518,-1.665,-1.6408,-1.6326,-1.6317,-1.6227,-1.6224,-1.6221,-1.6111,-1.611,-1.6109,-1.6109,-1.5923,-1.5916,-1.591,-1.5884,0,0,-1.5889,-1.5886,0,0,0,0,0,0,0,0,-1.6526,-1.6509,-1.6341,-1.6332,-1.6322,-1.619,-1.6242,-1.6108,-1.6111,-1.6189,-1.6109,-1.6108,-1.601,-1.5996,-1.5964,-1.5876,-1.5867,-1.5888,-1.5884,-1.5881,-1.5879,0,0,0,0,0,0,0,-1.6535,-1.6516,-1.6335,-1.6338,-1.6327,-1.6298,-1.6278,-1.6216,-1.6106,-1.6182,-1.6174,-1.6154,-1.6005,-1.5971,-1.5958,-1.5865,-1.5888,-1.5882,-1.5878,-1.5875,-1.5749,-1.575,0,0,0,0,0,0,-1.6558,-1.6525,-1.6341,-1.633,-1.6424,-1.6295,-1.6272,-1.6233,-1.6107,-1.6087,-1.6155,-1.615,-1.5983,-1.5967,-1.5951,-1.5915,-1.5881,-1.5875,-1.5871,-1.5748,-1.5749,-1.575,0,0,0,0,0,0,-1.6564,-1.6543,-1.6348,-1.6425,-1.6398,-1.6291,-1.6249,-1.623,-1.6196,-1.6086,-1.6066,-1.6141,-1.5981,-1.5961,-1.5903,-1.5906,-1.5872,-1.5866,-1.5747,-1.5749,-1.575,-1.5841,0,0,0,0,0,0,-1.6572,-1.6546,-1.6535,-1.6426,-1.6395,-1.6304,-1.6249,-1.6227,-1.6185,-1.6176,-1.6067,-1.6048,-1.5979,-1.5913,-1.5896,-1.5896,-1.586,-1.5747,-1.5748,-1.5749,-1.5837,-1.5845,-1.5852,0,0,0,0,0,-1.6581,-1.6567,-1.6535,-1.6514,-1.6379,-1.6304,-1.6286,-1.6208,-1.6186,-1.6174,-1.6104,-1.6052,-1.591,-1.5908,-1.5888,-1.5886,-1.5746,-1.5748,-1.5749,-1.5834,-1.5843,-1.5851,0,0,0,0,0,0,-1.6676,-1.655,-1.6514,-1.6464,-1.6396,-1.6285,-1.6268,-1.622,-1.6155,-1.6149,-1.6054,-1.603,-1.5982,-1.5928,-1.5929,-1.5857,-1.5822,-1.5819,-1.5893,-1.5901,-1.5909,-1.5922,-1.5855,0,0,0,0,0,-1.6693,-1.6643,-1.6535,-1.6501,-1.6469,-1.6375,-1.6339,-1.6286,-1.621,-1.618,-1.6105,-1.6034,-1.5973,-1.5934,-1.5872,-1.583,-1.5804,-1.5819,-1.5826,-1.5833,-1.5831,-1.5806,-1.5811,-1.5755,-1.5755,-1.5755,0,0,-1.6723,-1.6649,-1.6622,-1.6519,-1.6459,-1.641,-1.6351,-1.63,-1.6262,-1.6171,-1.6112,-1.6056,-1.5969,-1.592,-1.5894,-1.5873,-1.5842,-1.5835,-1.5841,-1.5835,-1.5808,-1.5814,-1.5819,-1.5756,-1.5756,-1.5756,0,0,-1.6754,-1.6693,-1.6659,-1.6602,-1.6514,-1.6452,-1.6445,-1.6342,-1.6302,-1.6242,-1.6173,-1.6127,-1.6023,-1.5965,-1.5922,-1.5936,-1.5885,-1.5919,-1.5956,-1.5933,-1.5937,-1.5941,-1.5946,-1.5949,-1.5918,-1.5918,-1.5918,0,-1.6803,-1.6726,-1.6647,-1.6601,-1.6558,-1.6477,-1.6442,-1.639,-1.6286,-1.6258,-1.6237,-1.6108,-1.6044,-1.598,-1.5984,-1.5952,-1.594,-1.5929,-1.5944,-1.5946,-1.5948,-1.5952,-1.5954,-1.5923,-1.5922,-1.5922,-1.5921,0,-1.6792,-1.674,-1.6723,-1.6627,-1.6582,-1.6542,-1.6457,-1.6421,-1.6372,-1.6313,-1.6254,-1.6175,-1.6096,-1.6078,-1.6028,-1.6007,-1.5998,-1.5962,-1.5924,-1.596,-1.5962,-1.5962,-1.5929,-1.5928,-1.5926,-1.5925,0,0,-1.6873,-1.6738,-1.6733,-1.669,-1.6589,-1.6547,-1.6504,-1.643,-1.6401,-1.6333,-1.6294,-1.6211,-1.6179,-1.613,-1.6074,-1.6054,-1.6071,-1.602,-1.6017,-1.6032,-1.6044,-1.6071,-1.6074,-1.6039,-1.6039,-1.6038,-1.6052,0,-1.6889,-1.6809,-1.6739,-1.6684,-1.6636,-1.6561,-1.6523,-1.6458,-1.6402,-1.6353,-1.6291,-1.6233,-1.6194,-1.6165,-1.6142,-1.6074,-1.6072,-1.6073,-1.6001,-1.5999,-1.6024,-1.6075,-1.6103,-1.6119,-1.6052,-1.6052,-1.6052,0,-1.6895,-1.6834,-1.6776,-1.6683,-1.666,-1.6628,-1.6555,-1.6509,-1.6434,-1.6395,-1.6343,-1.6286,-1.6237,-1.6207,-1.6139,-1.6141,-1.6108,-1.6071,-1.607,-1.6058,-1.6027,-1.6065,-1.6122,-1.6124,-1.6053,-1.6052,-1.6052,0,-1.6962,-1.6864,-1.6817,-1.6782,-1.6673,-1.6652,-1.6605,-1.6529,-1.649,-1.6426,-1.64,-1.6331,-1.6293,-1.6242,-1.6167,-1.6152,-1.6107,-1.6071,-1.6073,-1.6075,-1.6065,-1.6066,-1.6117,-1.6046,-1.6046,-1.6046,-1.6046,0,-1.6985,-1.6953,-1.6846,-1.6817,-1.6778,-1.6698,-1.6662,-1.6608,-1.6542,-1.6501,-1.6432,-1.6395,-1.63,-1.6251,-1.6193,-1.6146,-1.6129,-1.6096,-1.6081,-1.6101,-1.6106,-1.6077,-1.6073,-1.6047,-1.6046,-1.6046,-1.6046,0,-1.7051,-1.6978,-1.6922,-1.6825,-1.68,-1.6776,-1.6692,-1.6661,-1.6604,-1.6553,-1.6536,-1.6445,-1.6385,-1.6307,-1.6221,-1.6182,-1.6142,-1.6118,-1.6168,-1.6158,-1.6165,-1.6165,-1.6197,-1.6198,-1.6129,-1.613,-1.6131,0,-1.707,-1.7044,-1.6945,-1.6914,-1.687,-1.682,-1.6781,-1.6702,-1.6664,-1.6579,-1.6558,-1.6494,-1.6437,-1.6345,-1.627,-1.6205,-1.6179,-1.6195,-1.6168,-1.6191,-1.6179,-1.6181,-1.6178,-1.6201,-1.6202,-1.6203,-1.6204,0,-1.7112,-1.7079,-1.7025,-1.6961,-1.6917,-1.6862,-1.6803,-1.6781,-1.669,-1.6651,-1.659,-1.6547,-1.6462,-1.6398,-1.6324,-1.6275,-1.6224,-1.6214,-1.621,-1.623,-1.626,-1.6244,-1.6185,-1.6212,-1.6211,-1.6211,-1.621,-1.621,-1.7154,-1.7128,-1.7056,-1.7,-1.6949,-1.6896,-1.6863,-1.6804,-1.6752,-1.6678,-1.6635,-1.6576,-1.6503,-1.6399,-1.6353,-1.6305,-1.6285,-1.6281,-1.6279,-1.6279,-1.6286,-1.627,-1.6291,-1.6291,-1.6291,-1.629,-1.629,0,-1.7192,-1.7143,-1.7093,-1.7015,-1.6971,-1.6931,-1.6865,-1.6831,-1.6781,-1.6719,-1.6666,-1.6597,-1.6537,-1.646,-1.6393,-1.637,-1.6346,-1.6355,-1.6355,-1.6345,-1.6307,-1.6317,-1.6377,-1.6377,-1.6377,-1.6377,-1.6377,-1.6377,-1.7206,-1.7161,-1.712,-1.7049,-1.6999,-1.6943,-1.6909,-1.686,-1.6811,-1.6738,-1.6688,-1.664,-1.6571,-1.6501,-1.6443,-1.6422,-1.6401,-1.6418,-1.639,-1.6355,-1.6347,-1.634,-1.6348,-1.6414,-1.6414,-1.6431,-1.6431,-1.6431]}]]